Weather past 2 weeks in Mamoutzou, Mayotte

Now
86 °F

Broken clouds.


Feels Like: 95 °F
Forecast: 81 / 85 °F
Wind: 10 mph from Northwest

Location: Dzaoudzi / Pamanzi Mayotte

Current Time: Dec 22, 2014 at 4:52:28 PM

Latest Report: Dec 22, 2014 at 4:00 PM


Visibility: N/A

Pressure: 29.77 "Hg

Humidity: 70%

Dew point: 75 °F

Location of MamoutzouLocation

Historic Weather in Mamoutzou — Graph

°F

Mamoutzou temperature yesterday

Maximum temperature yesterday: 88 °F (at 9:30 AM)
Minimum temperature yesterday: 79 °F (at 2:30 PM)
Average temperature yesterday: 83 °F

Past Weeks' High & Low Weather Summary

 TemperatureHumidityPressure
High90 °F (Dec 12, 8:30 AM)94% (Dec 22, 3:30 AM)29.98 "Hg (Dec 22, 3:30 AM)
Low75 °F (Dec 8, 4:00 AM)59% (Dec 8, 11:00 AM)29.77 "Hg (Dec 22, 3:00 PM)
Average84 °F75%29.90 "Hg
* Reported Dec 7 3:04 PM — Dec 22 3:35 PM, Mamoutzou, Weather by CustomWeather, © 2014

Note: Actual official high and low records may vary slightly from our data, if they occured in-between our weather recording intervals... More about our weather records

Advertising

Mamoutzou weather history for previous 24 hours

 ConditionsComfort  
Time TempWeatherWind HumidityBarometerVisibility
3:35 PM
Dec 22
88 °FBroken clouds.12 mph66%29.77 "HgN/A
3:00 PM84 °FBroken clouds.12 mph79%29.77 "HgN/A
2:30 PM86 °FBroken clouds.10 mph70%29.80 "HgN/A
2:00 PM88 °FScattered clouds.8 mph70%29.80 "HgN/A
1:30 PM88 °FScattered clouds.9 mph59%29.83 "HgN/A
1:00 PM88 °FScattered showers. Partly sunny.13 mph66%29.83 "HgN/A
12:30 PM90 °FScattered showers. Broken clouds.9 mph63%29.86 "HgN/A
12:00 PM88 °FBroken clouds.6 mph62%29.86 "HgN/A
11:30 AM88 °FBroken clouds.3 mph66%29.89 "HgN/A
11:00 AM88 °FBroken clouds.8 mph66%29.89 "HgN/A
10:30 AM86 °FScattered showers. Broken clouds.13 mph70%29.89 "Hg5 mi
10:00 AM86 °FBroken clouds.9 mph75%29.89 "HgN/A
9:41 AM86 °FBroken clouds.7 mph75%29.89 "HgN/A
9:00 AM86 °FBroken clouds.6 mph75%29.89 "HgN/A
8:30 AM86 °FBroken clouds.7 mph75%29.89 "HgN/A
8:00 AM84 °FBroken clouds.6 mph79%29.89 "HgN/A
7:34 AM84 °FBroken clouds.2 mph79%29.89 "HgN/A
6:30 AM81 °FPassing clouds.2 mph89%29.86 "HgN/A
6:00 AM79 °FPassing clouds.No wind94%29.86 "HgN/A
5:30 AM79 °FPassing clouds.No wind94%29.83 "HgN/A
5:00 AM79 °FWarm.No wind89%29.83 "HgN/A
4:30 AM79 °FWarm.No wind94%29.83 "HgN/A
4:00 AM79 °FWarm.2 mph94%29.83 "HgN/A
3:30 AM79 °FPassing clouds.2 mph94%29.83 "HgN/A
3:00 AM81 °FWarm.2 mph89%29.80 "HgN/A
2:30 AM81 °FPassing clouds.5 mph89%29.83 "HgN/A
2:00 AM81 °FWarm.1 mph89%29.83 "HgN/A
1:30 AM81 °FWarm.2 mph89%29.83 "HgN/A
12:30 AM82 °FPassing clouds.7 mph84%29.83 "HgN/A
12:00 AM82 °FPassing clouds.7 mph84%29.86 "HgN/A
11:30 PM
Dec 21
81 °FPassing clouds.No wind89%29.86 "HgN/A
11:00 PM81 °FPassing clouds.No wind89%29.86 "HgN/A
10:30 PM81 °FPassing clouds.2 mph89%29.86 "HgN/A
10:00 PM81 °FPassing clouds.3 mph89%29.86 "HgN/A
9:30 PM81 °FPassing clouds.No wind84%29.86 "HgN/A
9:00 PM81 °FPassing clouds.2 mph89%29.86 "HgN/A
8:30 PM81 °FPassing clouds.No wind89%29.83 "HgN/A
8:00 PM81 °FPassing clouds.No wind84%29.83 "HgN/A
7:30 PM82 °FWarm.No wind79%29.83 "HgN/A
7:00 PM82 °FWarm.3 mph79%29.80 "HgN/A
6:30 PM84 °FWarm.5 mph74%29.80 "HgN/A
6:00 PM84 °FScattered clouds.7 mph74%29.80 "HgN/A
5:00 PM86 °FBroken clouds.6 mph66%29.80 "HgN/A
4:30 PM84 °FBroken clouds.6 mph70%29.80 "HgN/A
4:00 PM84 °FBroken clouds.5 mph74%29.80 "HgN/A
Weather by CustomWeather, © 2014

See weather overviewHow to use our weather pages